Погода в Девасе

Индия     22°56′31″N   76°03′37″E
темп.,
°C
ветер,
м/с
пор.,
м/с
влажн.,
%
обл.,
%
осадки,
мм/ч
давл.,
гПа
погр.,
м
14 апреля, ср
ср1423:30+30ссз2315100 0.0 101134
02:30+28сз331821 0.0 100943
05:30+26зсз331991 0.0 101037
08:30+31с481383 0.0 1013645
11:30+36ссз661087 0.0 10122774
14:30+36ссз5410100 0.0 10084425
17:30+34сз8813100 0.0 10081777
20:30+31зсз4817100 0.0 1010341
15 апреля, чт
чт1523:30+28зсз4925100 0.0 1010243
02:30+26юз2230100 0.0 100933
05:30+26юз233079 0.0 101142
08:30+29зсз46225 0.0 1013655
11:30+34зсз43160 0.0 10123038
14:30+36з32145 0.0 10074114
17:30+36зсз34138 0.0 10064094
20:30+32зсз231799 0.0 100844
16 апреля, пт
пт1623:30+31з231916 0.0 1008101
02:30+28з35235 0.0 1008128
05:30+25зсз362511 0.0 1009135
08:30+29сз5722100 0.0 1011537
11:30+35сз44160 0.0 10102294
14:30+37зюз441281 0.0 10064468
17:30+37з551219 0.0 10054255
20:30+33з4101651 0.0 1008413
17 апреля, сб
сб1723:30+30з512205 0.0 1009434
02:30+28зсз614220 0.0 1009567
05:30+25зсз410360 0.0 1010314
08:30+29ссз46355 0.0 1012605
11:30+35зсз462054 0.0 10112425
14:30+38з671480 0.0 10084714
17:30+36з871210 0.0 10074180
20:30+32зсз411151 0.0 1010294
18 апреля, вс
вс1823:30+30зсз38180 0.0 1011149
02:30+28зсз513220 0.0 1010361
05:30+26зсз49280 0.0 1012165
08:30+32с57200 0.0 1013586
11:30+37ссз47120 0.0 10123888
14:30+39зсз4595 0.0 10084589
17:30+38сз55914 0.0 10064654
20:30+33зсз47135 0.0 1009130